Location: Newark
(36.7482°N, 42.3014°E)
Time: 17:18:48
(UTC+00:00)

Tiangong 2 - Visible Passes

Search period start: 17 July 2019 00:00
Search period end: 27 July 2019 00:00
Orbit: 378 x 386 km, 42.8° (Epoch: 17 July)

Date Brightness Start Highest point End Pass type
(mag) Time Alt. Az. Time Alt. Az. Time Alt. Az.
17 Jul 2.6 18:08:28 10° NW 18:11:19 31° NNE 18:12:41 22° ENE visible
18 Jul 2.9 17:08:05 10° NW 17:10:49 26° N 17:13:32 10° ENE visible
18 Jul 2.2 18:44:42 10° WNW 18:47:00 43° NW 18:47:00 43° NW visible
19 Jul 2.0 17:44:25 10° WNW 17:47:25 42° NNE 17:49:11 20° E visible
19 Jul 4.2 19:21:10 10° W 19:21:20 11° W 19:21:20 11° W visible
20 Jul 1.2 18:20:41 10° WNW 18:23:31 64° WSW 18:23:31 64° WSW visible
21 Jul 1.3 17:20:19 10° WNW 17:23:26 65° NNE 17:25:45 16° ESE visible
21 Jul 4.0 18:57:34 10° W 18:57:54 12° W 18:57:54 12° W visible
22 Jul 1.9 17:56:45 10° W 17:59:40 37° SSW 18:00:11 34° S visible
23 Jul 1.1 16:56:15 10° WNW 16:59:22 73° SSW 17:02:29 10° ESE visible
24 Jul 3.0 17:33:05 10° W 17:35:28 20° SW 17:37:01 15° S visible
26 Jul 3.8 17:10:17 10° WSW 17:11:10 11° SW 17:12:04 10° SSW visible
